SCOUT A DEB, 2989

Orbit data source: Space-Track

SCOUT A DEB, 2989 is space debris in LEO originally from a launch on Fri, 28 Jan 1966 UTC launched from the Air Force Western Test Range (AFWTR). Debris objects in space refer to the collection of defunct objects orbiting the Earth. Examples of debris include non-operational satellites, rocket bodies, and fragments generated from explosions, collisions, or faulty payload assembly.

Loading next visibility...
Identifier
2989, 1966-005F
Orbit
LEO
Country
Flag of USUS
Related business
Manufacturer
Unknown
Mission
Spacecraft
Bus & Motor
Unknown
Mass
Unknown
Launch date (UTC)
1966-01-28 (60 years ago)
Launch vehicle
Unknown
Launch site
Air Force Western Test Range (AFWTR)
Object type
Payload
Rocket body
Debris
Shape & HBR
Unknown shape, 0.1 m
Radar Cross Section
Small (<0.1 m²)

Expand to show TLE details & history
Last TLE update: 1 day ago

TLE from 1 day ago
0 SCOUT A DEB
1 02989U 66005F   25346.30302417  .00000759  00000-0  47778-3 0  9992
2 02989  89.6652 291.2151 0110393 119.8172 241.4038 14.00425577970848
Epoch: 2025-12-12T07:16Z
TLE epoch observation values (Epoch: 2025-12-12T07:16:21.288Z)
Latitude
0.00002°
Longitude
100.87981°
Altitude
934.451 km
Speed
7.365 km/s
True Right ascension
19h 24m 51s
True Declination
0° 00' 00"
Sunlit
Object was in daylight at epoch
Visualization orbit readout
Latitude
Unknown
Longitude
Unknown
Altitude
Unknown
Speed
Unknown
Apparent Right ascension
Unknown
Apparent Declination
Unknown
Sunlit
N/A
Visualization observer readout
Local Sidereal Time
05:21:11
Azimuth
Unknown
Elevation
Unknown
Doppler factor
Unknown
Orbital elements
Apogee altitude
969.526 km
Perigee altitude
809.071 km
Semi-major axis
7,267.435 km
Eccentricity
0.01104
Inclination
89.6652°
RAAN
291.2151°
Arg. of periapsis
119.8172°
True anomaly
240.30046°
Mean anomaly
241.4038°
Eccentric anomaly
240.8514°
Mean motion
3.50325 °/min
Orbital period
102.76 mins
BSTAR
0.00047778
Loading maneuver chart data...
Computing Atmospheric mass density...
Loading historical data...
Loading historical data...
Loading historical data...
Loading historical data...
Loading historical data...
Loading historical data...
Loading historical data...

Documentation

Showing up to 5 results
|